Location: Arroyo Retuerta
(40.5469°N, 4.3534°W)
Time: 09:32:39
(UTC+00:00)

Daily predictions for brighter satellites

Satellite Brightness Start Highest point End
(mag) Time Altitude Azimuth Time Altitude Azimuth Time Altitude Azimuth
MOS 1 Rocket 3.1 20:04:22 10° NNE 20:08:41 68° E 20:12:56 10° S
ASTEX 1 3.4 20:04:35 10° S 20:09:28 84° E 20:14:25 10° N
STARLINK-1230 4.1 20:05:36 10° WSW 20:09:43 67° NW 20:13:51 10° NE
Cosmos 1703 Rocket 3.9 20:06:22 10° SSW 20:10:40 72° W 20:15:01 10° N
STARLINK-1070 3.9 20:07:23 10° NW 20:11:29 64° SW 20:15:35 10° SE
ASTRO E2 4.3 20:09:31 10° SW 20:12:16 18° S 20:15:02 10° SE
STARLINK-1243 4.3 20:10:37 10° WSW 20:14:42 61° NW 20:18:49 10° NE
Cosmos 2221 Rocket 4.2 20:11:11 10° SSE 20:15:20 37° E 20:19:31 10° NNE
STARLINK-1069 4.0 20:12:23 10° WNW 20:16:28 58° SW 20:20:31 10° SE
Meteor 2-9 Rocket 4.1 20:12:14 10° N 20:17:34 68° E 20:22:50 10° SSE
SL-4 R/B 2.1 20:14:58 10° NNW 20:17:48 34° NE 20:20:24 10° SE
STARLINK-1236 4.4 20:15:37 10° WSW 20:19:41 56° NW 20:23:47 10° NE
STARLINK-1085 4.2 20:17:24 10° WNW 20:21:26 52° SW 20:25:28 10° SSE
Cosmos 1190 Rocket 4.3 20:16:24 10° NNW 20:21:37 71° WSW 20:26:48 10° S
STARLINK-1086 4.3 20:22:24 10° WNW 20:26:24 47° SW 20:30:22 10° SSE
STARLINK-1094 4.4 20:24:42 10° NW 20:28:41 43° NNE 20:32:38 10° ESE
Cosmos 1515 4.2 20:25:48 10° SSW 20:29:34 63° W 20:33:21 10° N
Cosmos 2278 Rocket 2.6 20:25:01 10° SSW 20:30:40 72° WNW 20:36:22 10° NNE
Sich 1 Rocket 3.7 20:26:15 10° N 20:30:51 73° E 20:35:24 10° SSE
STARLINK-1095 4.5 20:27:25 10° WNW 20:31:20 43° SW 20:35:15 10° SSE
Resurs 01 Rocket 1.9 20:28:35 10° SSE 20:32:53 52° ENE 20:37:14 10° N
GPS 2-04 Rocket1 3.1 20:29:40 10° WSW 20:32:54 36° S 20:35:57 12° ESE
STARLINK-1117 4.3 20:29:40 10° NW 20:33:41 46° NNE 20:37:34 11° ESE
Okean 2 Rocket 3.4 20:32:01 10° N 20:36:19 49° E 20:40:27 11° SSE
STARLINK-1078 4.2 20:34:37 10° NW 20:38:40 50° NNE 20:42:21 12° ESE
Meteor 1-12 Rocket 4.4 20:34:05 10° N 20:39:39 56° ENE 20:45:11 10° SSE
Cosmos 371 Rocket 3.3 20:37:59 10° SSW 20:42:49 82° ESE 20:47:42 10° NNE
SPOT 3 Rocket 3.7 20:38:08 10° S 20:43:16 77° WSW 20:48:28 10° NNW
STARLINK-1108 4.1 20:39:35 10° NW 20:43:40 54° NE 20:47:08 14° ESE
ATLAS 3B CENTAUR R/B 4.4 20:28:19 10° WSW 20:43:51 38° S 20:50:57 12° ESE
SL-4 R/B 3.8 20:41:02 10° SSE 20:44:02 17° SE 20:47:07 10° E
Cosmos 2279 Rocket 4.2 20:38:21 10° N 20:44:29 55° E 20:50:13 11° SSE
Cosmos 1954 Rocket 4.2 20:39:59 10° NNW 20:45:16 76° WSW 20:50:33 10° SSE
Terra 4.0 20:45:40 10° E 20:47:15 12° ENE 20:48:50 10° NE
Spot 2 Rocket 4.2 20:44:03 14° SE 20:48:01 38° ENE 20:52:38 10° N
STARLINK-1071 3.9 20:44:33 10° NW 20:48:39 59° NE 20:51:55 15° ESE
Abrixas rocket 4.0 20:46:22 10° NW 20:48:50 23° NNE 20:51:17 10° ENE
NOSS 8 (H) 4.3 20:45:57 10° SSW 20:49:16 51° ESE 20:52:14 10° NE
Cosmos 2151 Rocket 3.9 20:46:40 10° N 20:51:05 50° E 20:54:34 16° SSE
H-2A R/B 4.3 20:48:33 10° SW 20:52:26 22° W 20:56:24 10° NW
STARLINK-1110 3.8 20:48:19 10° NW 20:52:27 63° NE 20:55:32 17° ESE
Resurs 1-3 4.2 20:52:58 10° S 20:57:15 56° W 21:01:35 10° NNW
STARLINK-1124 3.7 20:54:30 10° NW 20:58:38 71° NE 21:01:29 19° ESE
Cosmos 1331 Rocket 4.5 20:57:23 11° SSE 21:01:50 38° ESE 21:06:36 10° NE
Aureole 2 Rocket 2.1 20:59:49 11° S 21:02:44 56° ESE 21:05:43 10° NNE
STARLINK-1122 3.6 20:59:28 10° NW 21:03:37 77° NE 21:06:15 21° ESE
Cosmos 1300 Rocket 3.6 21:01:28 10° N 21:05:55 88° W 21:09:35 15° S
Cosmos 1437 Rocket 2.6 21:04:14 11° S 21:07:47 75° E 21:11:37 10° NNE
STARLINK-1126 3.6 21:04:28 10° NW 21:08:38 84° NE 21:11:06 24° SE
Cosmos 1378 4.4 21:09:41 22° ESE 21:10:31 24° E 21:13:32 10° NE
STARLINK-1082 3.5 21:09:24 10° NW 21:13:34 88° SSW 21:15:48 26° SE
Cosmos 304 Rocket 3.7 21:09:27 10° SSW 21:14:14 77° ESE 21:19:01 10° NNE
ISS -3.7 21:12:20 10° WNW 21:15:41 66° SW 21:17:02 32° SSE
Meteor 1-15 Rocket 4.5 21:12:21 10° N 21:18:13 58° ENE 21:21:57 22° SSE
STARLINK-1100 3.6 21:14:21 10° NW 21:18:30 81° SW 21:20:35 29° SE
NOSS 2-2 (D) 2.9 21:15:28 10° SSW 21:19:01 66° ESE 21:22:44 10° NE
Lacrosse 5 2.1 21:14:09 10° NW 21:19:08 61° SW 21:22:07 24° SSE
Cosmos 1674 Rocket 3.5 21:19:10 14° S 21:22:56 89° E 21:27:21 10° N
CENTAUR R/B 4.5 21:16:38 10° NNW 21:23:21 29° NE 21:30:36 10° E
STARLINK-1083 3.6 21:19:22 10° NW 21:23:30 74° SW 21:25:23 31° SE
Cosmos 1378 Rocket 3.5 21:22:49 20° S 21:25:49 72° E 21:30:11 10° NNE
STARLINK-1125 3.7 21:24:22 10° NW 21:28:29 67° SW 21:30:10 33° SSE
Cosmos 1766 4.4 21:28:24 10° NNE 21:31:56 29° ENE 21:32:47 27° E
STARLINK-1109 3.8 21:29:22 10° WNW 21:33:27 60° SW 21:34:57 35° SSE
IGS 5A 3.4 21:31:57 29° SSE 21:34:00 89° W 21:38:10 10° NNW
Cosmos 1943 Rocket 2.4 21:31:46 23° S 21:34:58 48° ESE 21:40:19 10° NE
Cosmos 2297 3.9 21:29:23 10° SSW 21:35:03 75° WNW 21:40:47 10° NNE
NOSS 2-2 (E) 3.7 21:32:48 10° SW 21:36:18 59° NW 21:40:09 10° NNE
Cosmos 1833 Rocket 4.1 21:32:25 10° NW 21:37:18 31° WSW 21:41:52 11° SSW
STARLINK-1091 3.9 21:34:20 10° WNW 21:38:23 55° SW 21:39:42 37° SSE
OE (NEXTSAT) 4.3 21:35:17 10° SW 21:38:42 54° SSE 21:39:16 47° ESE
Landsat 7 3.8 21:36:41 27° S 21:39:19 81° WSW 21:44:07 10° NNW
STARLINK-1072 4.1 21:39:22 10° WNW 21:43:22 49° SW 21:44:31 37° S
Cosmos 2082 Rocket 3.0 21:38:51 10° NW 21:44:17 46° WSW 21:47:54 20° S
Cosmos 1975 Rocket 3.7 21:44:36 35° ESE 21:45:24 38° E 21:49:30 10° NNE
SeaSat 1 4.4 21:43:19 10° ENE 21:44:35 13° E 21:44:35 13° E
CZ-4B DEB 4.2 21:45:24 57° SSE 21:46:02 88° ENE 21:49:22 10° NNW
Meteor 1-23 Rocket 4.4 21:41:05 12° SSW 21:46:19 75° W 21:51:58 10° N
SAR-Lupe-2 4.5 21:43:24 10° N 21:46:53 47° WNW 21:49:29 16° SW
STARLINK-1096 4.2 21:44:23 10° WNW 21:48:19 44° SW 21:49:17 37° S
STARLINK-1104 4.4 21:46:38 10° NW 21:50:38 45° NNE 21:52:18 29° E
Cosmos 2369 Rocket 2.5 21:49:04 32° SSE 21:51:09 46° ESE 21:56:32 10° NE
STARLINK-1079 4.3 21:49:24 10° WNW 21:53:17 40° SW 21:54:04 36° SSW
STARLINK-1144 4.3 21:51:36 10° NW 21:55:38 49° NNE 21:57:05 33° E
SPOT 5 3.1 21:53:31 36° SSE 21:55:41 74° ENE 22:01:02 10° N
ATLAS CENTAUR R/B 3.8 21:59:35 11° ENE 21:59:35 11° ENE 21:59:46 10° ENE
STARLINK-1116 4.4 21:54:26 10° WNW 21:58:14 36° SW 21:58:52 34° SSW
STARLINK-1103 4.1 21:56:33 10° NW 22:00:37 53° NE 22:01:51 37° E
NOSS 2-2 (C) 4.4 21:57:37 10° WSW 22:00:59 40° NW 22:04:38 10° NNE
ERS-1 Rocket 2.9 21:59:40 37° S 22:01:41 84° WSW 22:06:45 10° NNW
Okean 2 3.3 22:02:00 56° SSE 22:02:42 68° E 22:06:51 10° NNE
Cosmos 2026 Rocket 4.2 22:00:23 34° SSE 22:02:56 57° E 22:09:08 10° NNE
ATLAS 2AS CENTAUR R/B 3.3 22:00:30 29° SSE 22:04:03 45° ESE 22:11:31 10° NE
STARLINK-1101 4.0 22:01:30 10° NW 22:05:37 57° NE 22:06:38 43° E
Meteor 1-22 Rocket 4.3 22:01:14 10° N 22:07:06 70° E 22:09:05 41° SSE
Resurs 01 Rocket 4.2 22:07:17 10° SW 22:09:40 14° W 22:12:03 10° WNW
STARLINK-1102 3.8 22:06:29 10° NW 22:10:37 63° NE 22:11:26 50° E
NOSS 3-2 (A) 4.2 22:03:07 10° NNW 22:10:44 69° NE 22:15:10 31° SE
Cosmos 1805 3.3 22:07:55 10° NNW 22:11:51 74° W 22:12:24 61° SSW
GPS 2-04 Rocket1 4.4 22:08:52 10° WSW 22:10:11 18° WSW 22:10:11 18° WSW
Cosmos 1470 4.2 22:08:51 10° NNE 22:11:51 25° ENE 22:11:51 25° ENE
Okean 1 Rocket 3.9 22:09:12 10° NNW 22:13:27 44° W 22:15:05 30° SW
STARLINK-1111 3.7 22:11:27 10° NW 22:15:34 68° NE 22:16:12 58° E
Cosmos 968 Rocket 4.5 22:11:34 10° N 22:16:14 33° ENE 22:17:31 29° E
Cosmos 1455 Rocket 3.2 22:14:51 10° N 22:19:07 55° E 22:19:25 53° E
ATLAS 5 CENTAUR R/B 3.6 22:11:17 10° SSW 22:21:46 19° ENE 22:22:33 10° ENE
STARLINK-1073 3.6 22:16:25 10° NW 22:20:34 75° NE 22:21:00 67° E
USA 238 DEB 3.9 22:15:19 10° NNW 22:22:35 77° NE 22:25:51 37° SE
USA 238 3.9 22:15:25 10° NNW 22:22:42 76° NE 22:25:58 37° SE
SL-8 R/B 3.7 22:18:13 10° WNW 22:23:03 78° NNE 22:24:13 51° ESE
SL-4 R/B 2.3 22:18:28 10° SW 22:23:13 88° NW 22:28:06 10° NE
Cosmos 1842 3.1 22:24:08 84° SW 22:24:15 87° W 22:28:09 10° N
Terra 1.8 22:23:15 55° S 22:24:18 81° WSW 22:29:05 10° NNW
Abrixas rocket 3.6 22:21:38 10° WNW 22:23:18 30° WNW 22:23:18 30° WNW
STARLINK-1121 3.5 22:21:23 10° NW 22:25:33 82° NE 22:25:46 77° E
Cosmos 1758 4.5 22:21:58 10° NNE 22:25:25 32° ENE 22:25:25 32° ENE
Meteor 2-13 Rocket 4.4 22:23:31 42° S 22:25:43 75° E 22:31:53 10° N
CARTOSAT-1 4.3 22:24:56 38° SW 22:25:56 45° W 22:30:06 10° NNW
STARLINK-1106 3.5 22:26:23 10° NW 22:30:33 89° NE 22:30:34 89° E
STARLINK-1112 3.5 22:31:20 10° NW 22:35:19 80° W 22:35:19 80° W
STARLINK-1128 3.7 22:36:18 10° NW 22:40:06 69° W 22:40:06 69° W
Cosmos 2263 4.0 22:39:18 48° SSW 22:40:58 86° ESE 22:46:37 10° NNE
SWAS 4.5 22:38:55 10° NNW 22:43:12 68° WSW 22:43:12 68° WSW
Cosmos 1733 4.0 22:40:58 10° NNW 22:44:30 42° W 22:44:30 42° W
Cosmos 1536 Rocket 4.1 22:45:44 46° ENE 22:45:44 46° ENE 22:49:24 10° NNE
STARLINK-1113 3.9 22:41:19 10° NW 22:44:53 60° W 22:44:53 60° W
Cosmos 1271 Rocket 3.1 22:49:29 59° NNE 22:49:29 59° NNE 22:52:44 10° NNE
Cosmos 1242 Rocket 3.2 22:49:25 55° NW 22:49:25 55° NW 22:52:36 10° N
STARLINK-1119 4.1 22:46:20 10° WNW 22:49:41 51° W 22:49:41 51° W
Meteor 1-21 4.3 22:50:09 47° SSW 22:51:47 74° W 22:57:24 10° N
COSMOS 2455 3.0 22:52:50 52° ESE 22:53:05 52° ESE 22:58:55 10° NE
Spot 4 4.3 22:53:29 48° E 22:53:50 49° ENE 22:58:31 10° N
STARLINK-1114 4.4 22:51:18 10° WNW 22:54:27 44° W 22:54:27 44° W
Cosmos 1354 Rocket 4.5 22:50:41 10° N 22:55:50 48° ENE 22:56:35 45° E
Cosmos 1544 Rocket 3.5 22:51:34 10° N 22:55:47 78° WNW 22:55:47 78° WNW
Cosmos 1486 Rocket 3.9 22:52:40 10° NNW 22:57:59 80° WSW 22:58:32 70° SSW
Cosmos 1707 3.3 22:59:44 54° NNE 22:59:44 54° NNE 23:02:48 10° N
Cosmos 1833 4.3 22:54:37 10° NNW 23:00:14 63° ENE 23:01:10 54° ESE
SL-27 R/B 4.0 23:00:37 10° NNW 23:03:01 33° WNW 23:03:01 33° WNW
ATLAS 3B CENTAUR R/B 4.0 22:58:05 10° WSW 23:05:10 27° SW 23:05:10 27° SW
ALOS 2 3.8 23:07:47 31° ENE 23:07:47 31° ENE 23:11:33 10° N
Cosmos 1726 3.5 23:04:50 10° N 23:07:20 33° NE 23:07:20 33° NE
Cosmos 1417 Rocket 4.5 23:05:16 10° N 23:11:37 84° W 23:12:59 58° S
COSMOS 2487 4.3 23:08:29 10° N 23:10:32 26° NNE 23:10:32 26° NNE
CENTAUR R/B 3.1 23:06:51 10° NW 23:15:07 89° WSW 23:18:17 46° SSE
Cosmos 1992 Rocket 4.3 23:16:14 52° WSW 23:17:11 62° WNW 23:22:21 10° NNE
Meteor 1-16 Rocket 4.3 23:12:03 10° N 23:17:27 55° ENE 23:17:49 54° E
Cosmos 1867 3.7 23:12:39 10° NNW 23:18:05 65° NE 23:18:45 60° E
ATLAS 3B R/B 3.3 23:11:35 10° NNW 23:18:11 49° NE 23:21:10 31° ESE
Cosmos 1943 Rocket 4.1 23:14:26 10° WSW 23:18:57 25° NW 23:23:32 10° N
EO 1 Del DPAF 4.1 23:16:29 10° N 23:19:29 47° NNW 23:19:29 47° NNW
NOSS 3-2 (C) 4.1 23:12:46 10° NW 23:20:30 76° WSW 23:23:02 49° SSE
SeaSat 1 2.5 23:18:54 10° NNE 23:23:49 72° WNW 23:24:20 65° WSW
NOSS 3-4 (A) 3.7 23:23:53 32° WSW 23:26:39 62° NW 23:32:52 10° NNE
NOSS 3-4 (C) 3.7 23:24:02 33° WSW 23:26:44 63° NW 23:32:58 10° NNE
RESURS DK-1 4.0 23:29:48 27° NE 23:29:48 27° NE 23:31:56 10° NE
BREEZE-M R/B 4.0 23:22:51 10° SW 23:33:08 65° SE 23:37:48 10° ENE
Meteor 2-10 3.9 23:29:47 10° NNW 23:34:44 72° W 23:34:44 72° W
Cosmos 2369 Rocket 4.0 23:30:46 10° WSW 23:35:22 26° NW 23:40:05 10° N
ATLAS CENTAUR R/B 2.2 23:35:42 50° NW 23:35:42 50° NW 23:39:42 10° NNE
Cosmos 2315 Rocket 4.1 23:29:57 10° N 23:36:05 59° E 23:36:59 54° ESE
Cosmos 1340 Rocket 3.6 23:35:02 10° N 23:38:06 50° NNW 23:38:06 50° NNW
Cosmos 1025 Rocket 4.3 23:39:50 33° WNW 23:39:50 33° WNW 23:43:41 10° NNW
S3M 4.1 23:35:49 10° NNW 23:41:54 61° W 23:42:52 54° SW
Cosmos 1953 3.5 23:43:35 10° NNW 23:46:22 38° NW 23:46:22 38° NW
